Tracking 21082 objects as of 6-Aug-2020
HD Live streaming from Space Station
objects crossing your sky now

COSMOS 1275 DEB

Track COSMOS 1275 DEB now!
10-day predictions


NORAD ID: 18902
Int'l Code: 1981-053MG
Perigee: 800.9 km
Apogee: 817.3 km
Inclination: 83.0 °
Period: 100.9 minutes
Semi major axis: 7180 km
RCS: 0.0086 m2 (small)
Launch date: June 4, 1981
Source: Commonwealth of Independent States (former USSR) (CIS)
Launch site: PLESETSK MISSILE AND SPACE COMPLEX (PKMTR)

Note: This is SATELLITE DEBRIS
aabbcc
Your satellite tracking list
Your tracking list is empty




NASA's NSSDC Master Catalog

Two Line Element Set (TLE):
1 18902U 81053MB  20218.84104614  .00000170  00000-0  62859-4 0  9990
2 18902  82.9563 253.7255 0011438  57.6678 302.5613 14.26947625401270
Source of the keplerian elements: AFSPC